Погода в Зудилово

Россия / Алтайский край     53°29′14″N   83°53′15″E
темп.,
°C
ветер,
м/с
пор.,
м/с
влажн.,
%
обл.,
%
осадки,
мм/ч
давл.,
гПа
погр.,
м
21 апреля, ср
ср2101:00−6ю11775 0.0 102715
04:00−6ю247545 0.0 102582
07:00−5ю3569100 0.0 1025336
10:00−2ююз4551100 0.0 1024885
13:00+1ююз453899 0.0 10231613
16:00+2ююз4539100 0.0 10221933
19:00+1ююв2358100 0.0 10231099
22:00−2вюв5974100 0.0 1026298
22 апреля, чт
чт2201:00−2всв5887100 0.0 1028425
04:00−3св368888 0.1 1030308
07:00−3с4788100 0.1 1033331
10:000св695769 0.0 1035752
13:00+3ссв7943100 0.0 10362008
16:00+4св7843100 0.0 10382002
19:00+3ссв69551 0.0 10401009
22:00−1ссв410730 0.0 1042286
23 апреля, пт
пт2301:00−2ссв513772 0.0 1042431
04:00−2ссв612825 0.0 1042393
07:00−2ссв612845 0.0 1043453
10:00+2ссв710584 0.0 1042913
13:00+6св794639 0.0 10411757
16:00+6св7847100 0.0 10402038
19:00+5ссв696058 0.0 10401027
22:00+1ссв5127590 0.0 1040388
24 апреля, сб
сб2401:000ссв5128199 0.0 1038344
04:000с41083100 0.0 1037327
07:000с51182100 0.0 1036443
10:00+3ссв6767100 0.0 1034833
13:00+5ссв5761100 0.1 10331432
16:00+7с6754100 0.3 10311671
19:00+3с4695100 0.8 1032436
22:00+2ссз5997100 0.2 1032422
25 апреля, вс
вс2501:00+2с479299 0.3 1032524
04:00+2ссз3696100 0.1 1031332
07:00+2ссз3599100 0.1 1032186
10:00+2ссв3493100 0.3 1033436
13:00+5всв237499 0.3 1032864
16:00+7в126298 0.1 10321072
19:00+7юв2164100 0.3 1031719
22:00+3ю33805 0.0 103243